Location: Isola Pescaroli
(45.0500°N, 10.1667°E)
Time: 01:59:57
(UTC+00:00)

SL-4 R/B - Pass Details

Date: 18 June 2021
Orbit: 428 x 662 km, 51.6° (Epoch: 29 July)

Event Time Altitude Azimuth Distance (km) Brightness Sun altitude
Exits shadow 22:13:55 55° 120° (ESE) 621 1.9 -19.9°
Drops below altitude 10° 22:17:18 10° 66° (ENE) 1,680 4.6 -20.0°
Sets 22:19:24 0° 62° (ENE) 2,527 5.6 -20.1°
